This demonstration page uses our WeatherBlox Daily Observations layout. Learn more.

Left ArrowRight Arrow

39.12711, -84.51439

Hourly Observations for October 19, 2021

Temp ( °F °C ) Dew Point ( °F °C ) Humidity (%) Winds ( mph kmh ) Pressure ( in mb ) Visibility ( mi km ) Precip ( " mm )
12:53 am 00:53 Clear 46 7.8 46 7.8 100 100 Calm 30.17 1022 8 13 0.00 0.00
1:53 am 01:53 Clear 45 7.2 45 7.2 100 100 Calm 30.18 1022 9 14 0.00 0.00
2:18 am 02:18 Clear with Mist and Fog 44 6.7 44 6.7 100 100 Calm 30.20 1023 2 2 0.00 0.00
2:24 am 02:24 Mostly Cloudy with Mist and Fog 45 7.2 45 7.2 100 100 Calm 30.20 1023 1 1 0.00 0.00
2:45 am 02:45 Mostly Clear with Mist and Fog 44 6.7 44 6.7 100 100 Calm 30.20 1023 1 2 0.00 0.00
2:51 am 02:51 Mostly Clear with Mist and Fog 45 7 45 7 100 100 Calm 30.20 1023 3 5 0.00 0.00
2:53 am 02:53 Mostly Clear with Mist and Fog 44 6.7 44 6.7 100 100 Calm 30.19 1022 5 8 0.00 0.00
3:25 am 03:25 Partly Cloudy with Mist and Fog 45 7.2 45 7.2 100 100 Calm 30.20 1023 2 2 0.00 0.00
3:28 am 03:28 Mostly Cloudy with Mist and Fog 44 6.7 44 6.7 100 100 Calm 30.20 1023 1 1 0.00 0.00
3:43 am 03:43 Mostly Cloudy with Fog 43 6.1 43 6.1 100 100 Calm 30.22 1023 0 0 0.00 0.00
3:53 am 03:53 Mostly Cloudy with Fog 44 6.7 44 6.7 100 100 Calm 30.19 1022 0 0 0.00 0.00
4:35 am 04:35 Mostly Cloudy with Mist and Fog 44 6.7 44 6.7 100 100 Calm 30.21 1023 1 2 0.00 0.00
4:38 am 04:38 Cloudy with Mist and Fog 43 6.1 43 6.1 100 100 Calm 30.22 1023 4 6 0.00 0.00
4:53 am 04:53 Cloudy with Mist and Fog 43 6.1 43 6.1 100 100 Calm 30.19 1023 5 8 0.00 0.00
5:12 am 05:12 Cloudy with Mist and Fog 43 6.1 43 6.1 100 100 Calm 30.22 1023 2 3 0.00 0.00
5:34 am 05:34 Mostly Cloudy with Fog 43 6.1 43 6.1 100 100 Calm 30.23 1024 0 0 0.00 0.00
5:53 am 05:53 Mostly Cloudy with Fog 43 6.1 43 6.1 100 100 Calm 30.21 1023 1 1 0.00 0.00
6:00 am 06:00 Cloudy with Mist and Fog 43 6.1 43 6.1 100 100 Calm 30.24 1024 2 3 0.00 0.00
6:31 am 06:31 Cloudy 44 6.7 44 6.7 100 100 Calm 30.24 1024 9 14 0.00 0.00
6:40 am 06:40 Cloudy with Mist and Fog 44 6.7 44 6.7 100 100 Calm 30.24 1024 2 3 0.00 0.00
6:53 am 06:53 Cloudy with Mist and Fog 44 6.7 44 6.7 100 100 Calm 30.23 1024 2 2 0.00 0.00
7:53 am 07:53 Cloudy with Mist and Fog 43 6.1 43 6.1 100 100 Calm 30.24 1024 2 2 0.00 0.00
8:05 am 08:05 Cloudy with Fog 43 6.1 43 6.1 100 100 Calm 30.26 1025 1 1 0.00 0.00
8:53 am 08:53 Mostly Cloudy with Fog 46 7.8 45 7.2 96 96 Calm 30.25 1025 1 2 0.00 0.00
9:53 am 09:53 Mostly Cloudy with Fog 51 10.6 49 9.4 92 92 Calm 30.26 1025 1 2 0.00 0.00
10:00 am 10:00 Sunny 51 10.6 50 10 96 96 Calm 30.27 1025 10 16 0.00 0.00
10:53 am 10:53 Sunny 57 13.9 51 10.6 81 81 Calm 30.25 1025 10 16 0.00 0.00
11:53 am 11:53 Sunny 63 17.2 52 11.1 68 68 Calm 30.25 1024 10 16 0.00 0.00
12:53 pm 12:53 Sunny 69 20.6 50 10 51 51 Calm 30.23 1024 10 16 0.00 0.00
1:53 pm 13:53 Sunny 71 21.7 48 8.9 44 44 SSW 10 17 30.20 1023 10 16 0.00 0.00
2:53 pm 14:53 Sunny 71 21.7 46 7.8 41 41 SW 8 13 30.17 1022 10 16 0.00 0.00
3:53 pm 15:53 Sunny 71 21.7 48 8.9 44 44 S 8 13 30.16 1021 10 16 0.00 0.00
4:53 pm 16:53 Sunny 70 21.1 48 8.9 46 46 SW 8 13 30.15 1021 10 16 0.00 0.00
5:53 pm 17:53 Sunny 64 17.8 52 11.1 65 65 S 5 7 30.15 1021 10 16 0.00 0.00
6:53 pm 18:53 Sunny 60 15.6 53 11.7 78 78 Calm 30.16 1021 10 16 0.00 0.00
7:53 pm 19:53 Clear 57 13.9 52 11.1 83 83 Calm 30.17 1022 10 16 0.00 0.00
8:53 pm 20:53 Clear 54 12.2 52 11.1 93 93 Calm 30.17 1022 10 16 0.00 0.00
9:53 pm 21:53 Clear 51 10.6 51 10.6 100 100 Calm 30.18 1022 10 16 0.00 0.00
10:53 pm 22:53 Clear 48 8.9 48 8.9 100 100 Calm 30.18 1022 10 16 0.00 0.00
11:08 pm 23:08 Clear with Mist and Fog 49 9.4 49 9.4 100 100 Calm 30.20 1023 2 3 0.00 0.00
11:18 pm 23:18 Clear with Mist and Fog 49 9.4 49 9.4 100 100 Calm 30.19 1022 1 1 0.00 0.00
11:23 pm 23:23 Clear with Mist and Fog 49 9.4 49 9.4 100 100 Calm 30.19 1022 3 4 0.00 0.00
11:30 pm 23:30 Clear 49 9.4 49 9.4 100 100 Calm 30.20 1023 10 16 0.00 0.00
11:53 pm 23:53 Clear 48 8.9 48 8.9 100 100 Calm 30.19 1022 8 13 0.00 0.00

Powered by AerisWeather